Burnet, TX

1:46 AM CDT on July 27, 2016 (GMT -0500)
Burnet Municipal-Craddock

Weather History for KBMQ - August, 2014

Change the Weather History Date:

Thursday, August 21, 2014

  Actual Average Record
Temperature  
Mean Temperature 88 °F -  
Max Temperature 99 °F 91 °F 100 °F (1999)
Min Temperature 78 °F 71 °F 66 °F (2004)
Cooling Degree Days 24    
Growing Degree Days 38 (Base 50)    
Moisture  
Dew Point 67 °F    
Average Humidity 60    
Maximum Humidity 81    
Minimum Humidity 25    
Precipitation  
Precipitation 0.00 in - - ()
Sea Level Pressure  
Sea Level Pressure 30.00 in    
Wind  
Wind Speed 10 mph (South)    
Max Wind Speed 16 mph    
Max Gust Speed 26 mph    
Visibility 10 miles    
Events      
Averages and records for this station are not official NWS values.
T = Trace of Precipitation, MM = Missing Value Source: NWS Daily Summary

Daily Weather History Graph

Daily Weather History Graph

Search for Another Location

Airport or City:

Trip Planner

Search our weather history database for the weather conditions in past years. The results will help you decide how hot, cold, wet, or windy it might be!

Date:

Astronomy

Aug. 21, 2014 Rise Set
Actual Time 7:02 AM CDT 8:08 PM CDT
Civil Twilight 6:37 AM CDT 8:33 PM CDT
Nautical Twilight 6:08 AM CDT 9:03 PM CDT
Astronomical Twilight 5:37 AM CDT 9:33 PM CDT
Moon 3:41 AM CDT (8/21) 5:32 PM CDT (8/21)
Length of Visible Light 13h 55m
Length of Day
13h 05m
Waning Crescent, 13% of the Moon is Illuminated
Aug 21
Waning Crescent
Aug 25
New
Sep 2
First Quarter
Sep 8
Full
Sep 15
Last Quarter

Hourly Weather History & Observations

Time (CDT) Temp. Heat Index Dew Point Humidity Pressure Visibility Wind Dir Wind Speed Gust Speed Precip Events Conditions
12:53 AM 80.1 °F 83.6 °F 71.1 °F 74% 29.98 in 10.0 mi SSE 8.1 mph 19.6 mph N/A   Clear
1:53 AM 79.0 °F - 70.0 °F 74% 29.97 in 10.0 mi South 10.4 mph - N/A   Clear
2:50 AM 78.8 °F - 69.8 °F 74% 30.03 in 10.0 mi South 11.5 mph 18.4 mph N/A   Mostly Cloudy
2:53 AM 78.1 °F - 70.0 °F 76% 29.97 in 10.0 mi South 10.4 mph 18.4 mph N/A   Mostly Cloudy
3:53 AM 78.1 °F - 71.1 °F 79% 29.96 in 10.0 mi South 12.7 mph 23.0 mph N/A   Scattered Clouds
4:53 AM 78.1 °F - 71.1 °F 79% 29.96 in 10.0 mi South 8.1 mph - N/A   Scattered Clouds
5:07 AM 78.1 °F - 71.1 °F 79% 30.03 in 10.0 mi South 5.8 mph - N/A   Mostly Cloudy
5:14 AM 78.1 °F - 71.1 °F 79% 30.03 in 10.0 mi South 6.9 mph - N/A   Mostly Cloudy
5:26 AM 78.1 °F - 72.0 °F 81% 30.04 in 10.0 mi South 6.9 mph - N/A   Mostly Cloudy
5:53 AM 78.1 °F - 72.0 °F 81% 29.99 in 10.0 mi South 8.1 mph - N/A   Mostly Cloudy
6:41 AM 78.1 °F - 72.0 °F 81% 30.06 in 10.0 mi South 5.8 mph - N/A   Mostly Cloudy
6:50 AM 78.8 °F - 71.6 °F 78% 30.06 in 10.0 mi South 5.8 mph - N/A   Overcast
6:53 AM 78.1 °F - 72.0 °F 81% 30.00 in 10.0 mi South 8.1 mph - N/A   Overcast
7:22 AM 78.1 °F - 72.0 °F 81% 30.08 in 10.0 mi Variable 4.6 mph - N/A   Overcast
7:51 AM 78.8 °F - 71.6 °F 78% 30.08 in 10.0 mi South 5.8 mph - N/A   Overcast
7:53 AM 79.0 °F - 72.0 °F 79% 30.02 in 10.0 mi South 6.9 mph - N/A   Overcast
8:53 AM 80.1 °F 83.6 °F 71.1 °F 74% 30.03 in 10.0 mi South 11.5 mph - N/A   Mostly Cloudy
9:53 AM 84.0 °F 87.0 °F 68.0 °F 58% 30.03 in 10.0 mi SSW 16.1 mph 24.2 mph N/A   Partly Cloudy
10:53 AM 88.0 °F 90.3 °F 66.0 °F 48% 30.03 in 10.0 mi South 9.2 mph 23.0 mph N/A   Clear
11:53 AM 90.0 °F 91.3 °F 64.0 °F 42% 30.03 in 10.0 mi SSW 13.8 mph 23.0 mph N/A   Clear
12:53 PM 93.0 °F 93.0 °F 61.0 °F 34% 30.01 in 10.0 mi South 12.7 mph 23.0 mph N/A   Clear
1:53 PM 93.9 °F 94.0 °F 61.0 °F 33% 29.99 in 10.0 mi South 16.1 mph 26.5 mph N/A   Clear
2:53 PM 97.0 °F 96.9 °F 60.1 °F 29% 29.97 in 10.0 mi SSE 11.5 mph 21.9 mph N/A   Clear
3:53 PM 99.0 °F 98.1 °F 57.0 °F 25% 29.96 in 10.0 mi South 13.8 mph 24.2 mph N/A   Clear
4:53 PM 98.1 °F 96.8 °F 57.0 °F 25% 29.93 in 10.0 mi SSE 16.1 mph 25.3 mph N/A   Clear
5:53 PM 97.0 °F 96.1 °F 57.9 °F 27% 29.93 in 10.0 mi South 12.7 mph 24.2 mph N/A   Clear
6:53 PM 97.0 °F 96.1 °F 57.9 °F 27% 29.94 in 10.0 mi South 16.1 mph 23.0 mph N/A   Clear
7:53 PM 93.9 °F 93.6 °F 60.1 °F 32% 29.94 in 10.0 mi South 9.2 mph 19.6 mph N/A   Clear
8:53 PM 91.0 °F 90.9 °F 61.0 °F 36% 29.95 in 10.0 mi SSE 8.1 mph - N/A   Clear
10:53 PM 86.0 °F 90.1 °F 69.1 °F 57% 30.00 in 10.0 mi SSE 10.4 mph 16.1 mph N/A   Clear
11:53 PM 82.9 °F 87.0 °F 70.0 °F 65% 30.00 in 10.0 mi South 11.5 mph 17.3 mph N/A   Clear